Time,TemperatureF,DewpointF,PressureIn,WindDirection,WindDirectionDegrees,WindSpeedMPH,WindSpeedGustMPH,Humidity,HourlyPrecipIn,Conditions,Clouds,dailyrainin,SoftwareType,DateUTC
2013-03-25 00:03:00,26.0,24.0,-100.00,NW,325,13.0,24.0,91,0.03,,,-99.99,,2013-03-25 05:03:00,
2013-03-25 00:12:00,26.0,24.0,-100.00,NNW,335,13.0,21.0,91,0.01,,,-99.99,,2013-03-25 05:12:00,
2013-03-25 00:22:00,26.0,24.0,-100.00,North,350,11.0,24.0,91,0.01,,,-99.99,,2013-03-25 05:22:00,
2013-03-25 00:32:00,26.0,23.0,-100.00,NNW,340,11.0,18.0,91,0.00,,,-99.99,,2013-03-25 05:32:00,
2013-03-25 00:42:00,26.0,23.0,-100.00,NNW,340,11.0,18.0,91,0.00,,,-99.99,,2013-03-25 05:42:00,
2013-03-25 00:52:00,25.0,23.0,-100.00,NNW,340,12.0,22.0,89,0.00,,,-99.99,,2013-03-25 05:52:00,
2013-03-25 01:02:00,25.0,23.0,-100.00,NNW,340,12.0,22.0,89,0.00,,,-99.99,,2013-03-25 06:02:00,
2013-03-25 01:12:00,25.0,22.0,-100.00,North,0,11.0,19.0,89,0.00,,,-99.99,,2013-03-25 06:12:00,
2013-03-25 01:22:00,25.0,22.0,-100.00,North,0,11.0,19.0,89,0.00,,,-99.99,,2013-03-25 06:22:00,
2013-03-25 01:32:00,25.0,22.0,-100.00,NNW,335,11.0,19.0,88,0.00,,,-99.99,,2013-03-25 06:32:00,
2013-03-25 01:42:00,25.0,22.0,-100.00,NNW,335,11.0,19.0,88,0.00,,,-99.99,,2013-03-25 06:42:00,
2013-03-25 01:52:00,25.0,22.0,-100.00,NNW,340,9.0,17.0,88,0.00,,,-99.99,,2013-03-25 06:52:00,
2013-03-25 02:02:00,25.0,22.0,-100.00,NNW,340,9.0,17.0,88,0.00,,,-99.99,,2013-03-25 07:02:00,
2013-03-25 02:12:00,25.0,22.0,-100.00,NNW,340,11.0,19.0,87,0.00,,,-99.99,,2013-03-25 07:12:00,
2013-03-25 02:22:00,24.0,21.0,-100.00,NNW,330,10.0,19.0,87,0.00,,,-99.99,,2013-03-25 07:22:00,
2013-03-25 02:32:00,24.0,21.0,-100.00,NNW,330,11.0,18.0,88,0.00,,,-99.99,,2013-03-25 07:32:00,
2013-03-25 02:42:00,24.0,21.0,-100.00,NNW,330,11.0,18.0,88,0.00,,,-99.99,,2013-03-25 07:42:00,
2013-03-25 02:52:00,24.0,21.0,-100.00,NNW,340,10.0,17.0,88,0.01,,,-99.99,,2013-03-25 07:52:00,
2013-03-25 03:02:00,24.0,21.0,-100.00,NNW,340,10.0,17.0,88,0.01,,,-99.99,,2013-03-25 08:02:00,
2013-03-25 03:12:00,24.0,21.0,-100.00,NNW,335,10.0,18.0,88,0.01,,,-99.99,,2013-03-25 08:12:00,
2013-03-25 03:22:00,24.0,21.0,-100.00,NNW,345,9.0,17.0,88,0.00,,,-99.99,,2013-03-25 08:22:00,
2013-03-25 03:32:00,24.0,21.0,-100.00,NNW,340,9.0,18.0,88,0.00,,,-99.99,,2013-03-25 08:32:00,
2013-03-25 03:42:00,24.0,21.0,-100.00,NNW,340,9.0,18.0,88,0.00,,,-99.99,,2013-03-25 08:42:00,
2013-03-25 03:52:00,24.0,21.0,-100.00,NNW,335,9.0,14.0,88,0.00,,,-99.99,,2013-03-25 08:52:00,
2013-03-25 04:02:00,24.0,21.0,-100.00,NNW,335,9.0,14.0,88,0.00,,,-99.99,,2013-03-25 09:02:00,
2013-03-25 04:12:00,24.0,21.0,-100.00,NNW,330,9.0,16.0,88,0.00,,,-99.99,,2013-03-25 09:12:00,
2013-03-25 04:22:00,24.0,21.0,-100.00,NNW,335,9.0,13.0,88,0.00,,,-99.99,,2013-03-25 09:22:00,
2013-03-25 04:33:00,24.0,21.0,-100.00,NNW,340,7.0,15.0,88,0.00,,,-99.99,,2013-03-25 09:33:00,
2013-03-25 04:42:00,24.0,21.0,-100.00,NNW,340,7.0,15.0,88,0.00,,,-99.99,,2013-03-25 09:42:00,
2013-03-25 04:52:00,24.0,21.0,-100.00,NW,315,8.0,14.0,88,0.00,,,-99.99,,2013-03-25 09:52:00,
2013-03-25 05:03:00,24.0,21.0,-100.00,NW,315,8.0,14.0,88,0.00,,,-99.99,,2013-03-25 10:03:00,
2013-03-25 05:12:00,24.0,21.0,-100.00,North,350,8.0,14.0,88,0.01,,,-99.99,,2013-03-25 10:12:00,
2013-03-25 05:22:00,24.0,21.0,-100.00,NNW,340,9.0,14.0,88,0.00,,,-99.99,,2013-03-25 10:22:00,
2013-03-25 05:32:00,24.0,22.0,-100.00,NW,325,9.0,16.0,89,0.00,,,-99.99,,2013-03-25 10:32:00,
2013-03-25 05:42:00,24.0,22.0,-100.00,NW,325,9.0,16.0,89,0.00,,,-99.99,,2013-03-25 10:42:00,
2013-03-25 05:53:00,24.0,22.0,-100.00,North,355,9.0,14.0,89,0.00,,,-99.99,,2013-03-25 10:53:00,
2013-03-25 06:03:00,24.0,22.0,-100.00,North,355,9.0,14.0,89,0.00,,,-99.99,,2013-03-25 11:03:00,
2013-03-25 06:12:00,24.0,22.0,-100.00,NNW,345,8.0,14.0,88,0.00,,,-99.99,,2013-03-25 11:12:00,
2013-03-25 06:23:00,24.0,22.0,-100.00,NNW,340,9.0,13.0,88,0.00,,,-99.99,,2013-03-25 11:23:00,
2013-03-25 06:32:00,24.0,22.0,-100.00,NNW,335,7.0,14.0,88,0.00,,,-99.99,,2013-03-25 11:32:00,
2013-03-25 06:42:00,24.0,22.0,-100.00,NNW,335,7.0,14.0,88,0.00,,,-99.99,,2013-03-25 11:42:00,
2013-03-25 06:52:00,24.0,22.0,-100.00,NNW,335,9.0,15.0,88,0.00,,,-99.99,,2013-03-25 11:52:00,
2013-03-25 07:02:00,24.0,22.0,-100.00,NNW,335,9.0,15.0,88,0.00,,,-99.99,,2013-03-25 12:02:00,
2013-03-25 07:12:00,24.0,22.0,-100.00,NNW,330,12.0,16.0,88,0.00,,,-99.99,,2013-03-25 12:12:00,
2013-03-25 07:23:00,24.0,21.0,-100.00,NNW,335,11.0,17.0,88,0.00,,,-99.99,,2013-03-25 12:23:00,
2013-03-25 07:32:00,24.0,21.0,-100.00,NW,325,9.0,16.0,88,0.00,,,-99.99,,2013-03-25 12:32:00,
2013-03-25 07:42:00,24.0,21.0,-100.00,NW,325,9.0,16.0,88,0.00,,,-99.99,,2013-03-25 12:42:00,
2013-03-25 07:52:00,24.0,21.0,-100.00,NNW,335,9.0,16.0,87,0.00,,,-99.99,,2013-03-25 12:52:00,
2013-03-25 08:02:00,24.0,21.0,-100.00,NNW,335,9.0,16.0,87,0.00,,,-99.99,,2013-03-25 13:02:00,
2013-03-25 08:12:00,24.0,21.0,-100.00,NW,325,11.0,16.0,87,0.00,,,-99.99,,2013-03-25 13:12:00,
2013-03-25 08:22:00,24.0,21.0,-100.00,NNW,330,9.0,19.0,87,0.00,,,-99.99,,2013-03-25 13:22:00,
2013-03-25 08:32:00,24.0,21.0,-100.00,NNW,340,10.0,16.0,86,0.00,,,-99.99,,2013-03-25 13:32:00,
2013-03-25 08:42:00,24.0,21.0,-100.00,NNW,340,10.0,16.0,86,0.00,,,-99.99,,2013-03-25 13:42:00,
2013-03-25 08:52:00,24.0,21.0,-100.00,NNW,330,11.0,19.0,85,0.00,,,-99.99,,2013-03-25 13:52:00,
2013-03-25 09:03:00,24.0,21.0,-100.00,NNW,330,11.0,19.0,85,0.00,,,-99.99,,2013-03-25 14:03:00,
2013-03-25 09:12:00,25.0,21.0,-100.00,NNW,330,12.0,17.0,85,0.00,,,-99.99,,2013-03-25 14:12:00,
2013-03-25 09:22:00,25.0,21.0,-100.00,NNW,330,12.0,19.0,84,0.00,,,-99.99,,2013-03-25 14:22:00,
2013-03-25 09:32:00,25.0,21.0,-100.00,NNW,340,9.0,17.0,83,0.00,,,-99.99,,2013-03-25 14:32:00,
2013-03-25 09:42:00,25.0,21.0,-100.00,NNW,340,9.0,17.0,83,0.00,,,-99.99,,2013-03-25 14:42:00,
2013-03-25 09:52:00,26.0,21.0,-100.00,NNW,330,9.0,17.0,80,0.00,,,-99.99,,2013-03-25 14:52:00,
2013-03-25 10:02:00,26.0,21.0,-100.00,NNW,330,9.0,17.0,80,0.00,,,-99.99,,2013-03-25 15:02:00,
2013-03-25 10:12:00,26.0,21.0,-100.00,NNW,340,12.0,22.0,79,0.00,,,-99.99,,2013-03-25 15:12:00,
2013-03-25 10:22:00,27.0,21.0,-100.00,NNW,340,11.0,19.0,78,0.00,,,-99.99,,2013-03-25 15:22:00,
2013-03-25 10:32:00,27.0,21.0,-100.00,North,0,11.0,20.0,76,0.00,,,-99.99,,2013-03-25 15:32:00,
2013-03-25 10:42:00,27.0,21.0,-100.00,North,0,11.0,20.0,76,0.00,,,-99.99,,2013-03-25 15:42:00,
2013-03-25 10:53:00,27.0,20.0,-100.00,North,355,12.0,21.0,73,0.00,,,-99.99,,2013-03-25 15:53:00,
2013-03-25 11:03:00,27.0,20.0,-100.00,North,355,12.0,21.0,73,0.00,,,-99.99,,2013-03-25 16:03:00,
2013-03-25 11:12:00,28.0,20.0,-100.00,NNW,340,12.0,22.0,72,0.00,,,-99.99,,2013-03-25 16:12:00,
2013-03-25 11:23:00,28.0,20.0,-100.00,North,350,13.0,21.0,71,0.00,,,-99.99,,2013-03-25 16:23:00,
2013-03-25 11:33:00,29.0,20.0,-100.00,North,0,12.0,19.0,68,0.00,,,-99.99,,2013-03-25 16:33:00,
2013-03-25 11:42:00,29.0,20.0,-100.00,North,0,12.0,19.0,68,0.00,,,-99.99,,2013-03-25 16:42:00,
2013-03-25 11:52:00,29.0,20.0,-100.00,NNW,340,14.0,21.0,68,0.00,,,-99.99,,2013-03-25 16:52:00,
2013-03-25 12:02:00,29.0,20.0,-100.00,NNW,340,14.0,21.0,68,0.00,,,-99.99,,2013-03-25 17:02:00,
2013-03-25 12:12:00,29.0,20.0,-100.00,NNW,340,11.0,20.0,67,0.00,,,-99.99,,2013-03-25 17:12:00,
2013-03-25 12:23:00,29.0,20.0,-100.00,North,0,12.0,19.0,67,0.00,,,-99.99,,2013-03-25 17:23:00,
2013-03-25 12:33:00,29.0,20.0,-100.00,NNW,335,13.0,21.0,66,0.00,,,-99.99,,2013-03-25 17:33:00,
2013-03-25 12:42:00,29.0,20.0,-100.00,NNW,335,13.0,21.0,66,0.00,,,-99.99,,2013-03-25 17:42:00,
2013-03-25 12:52:00,30.0,20.0,-100.00,NNW,345,12.0,21.0,65,0.00,,,-99.99,,2013-03-25 17:52:00,
2013-03-25 13:03:00,30.0,20.0,-100.00,NNW,345,12.0,21.0,65,0.00,,,-99.99,,2013-03-25 18:03:00,
2013-03-25 13:12:00,31.0,20.0,-100.00,North,0,10.0,23.0,64,0.00,,,-99.99,,2013-03-25 18:12:00,
2013-03-25 13:22:00,31.0,20.0,-100.00,North,355,12.0,19.0,63,0.00,,,-99.99,,2013-03-25 18:22:00,
2013-03-25 13:33:00,31.0,20.0,-100.00,North,350,13.0,20.0,63,0.00,,,-99.99,,2013-03-25 18:33:00,
2013-03-25 13:42:00,31.0,20.0,-100.00,North,350,13.0,20.0,63,0.00,,,-99.99,,2013-03-25 18:42:00,
2013-03-25 13:52:00,31.0,20.0,-100.00,North,350,12.0,22.0,61,0.00,,,-99.99,,2013-03-25 18:52:00,
2013-03-25 14:03:00,31.0,20.0,-100.00,North,350,12.0,22.0,61,0.00,,,-99.99,,2013-03-25 19:03:00,
2013-03-25 14:12:00,32.0,20.0,-100.00,NNW,330,12.0,21.0,60,0.00,,,-99.99,,2013-03-25 19:12:00,
2013-03-25 14:22:00,32.0,20.0,-100.00,NNW,345,13.0,21.0,59,0.00,,,-99.99,,2013-03-25 19:22:00,
2013-03-25 14:33:00,33.0,19.0,-100.00,NNW,340,12.0,22.0,57,0.00,,,-99.99,,2013-03-25 19:33:00,
2013-03-25 14:42:00,33.0,19.0,-100.00,NNW,340,12.0,22.0,57,0.00,,,-99.99,,2013-03-25 19:42:00,
2013-03-25 14:52:00,33.0,19.0,-100.00,NNW,330,12.0,21.0,56,0.00,,,-99.99,,2013-03-25 19:52:00,
2013-03-25 15:02:00,33.0,19.0,-100.00,NNW,330,12.0,21.0,56,0.00,,,-99.99,,2013-03-25 20:02:00,
2013-03-25 15:12:00,33.0,18.0,-100.00,NNW,345,12.0,19.0,55,0.00,,,-99.99,,2013-03-25 20:12:00,
2013-03-25 15:22:00,33.0,18.0,-100.00,North,0,11.0,19.0,54,0.00,,,-99.99,,2013-03-25 20:22:00,
2013-03-25 15:32:00,33.0,18.0,-100.00,North,350,12.0,20.0,53,0.00,,,-99.99,,2013-03-25 20:32:00,
2013-03-25 15:42:00,33.0,18.0,-100.00,North,350,12.0,20.0,53,0.00,,,-99.99,,2013-03-25 20:42:00,
2013-03-25 15:52:00,33.0,18.0,-100.00,NNW,330,11.0,17.0,52,0.00,,,-99.99,,2013-03-25 20:52:00,
2013-03-25 16:02:00,33.0,18.0,-100.00,NNW,330,11.0,17.0,52,0.00,,,-99.99,,2013-03-25 21:02:00,
2013-03-25 16:12:00,33.0,17.0,-100.00,NNW,345,12.0,18.0,51,0.00,,,-99.99,,2013-03-25 21:12:00,
2013-03-25 16:22:00,34.0,17.0,-100.00,NNW,330,11.0,17.0,50,0.00,,,-99.99,,2013-03-25 21:22:00,
2013-03-25 16:33:00,33.0,17.0,-100.00,North,350,11.0,18.0,51,0.00,,,-99.99,,2013-03-25 21:33:00,
2013-03-25 16:42:00,33.0,17.0,-100.00,North,350,11.0,18.0,51,0.00,,,-99.99,,2013-03-25 21:42:00,
2013-03-25 16:52:00,34.0,18.0,-100.00,NNW,340,9.0,18.0,51,0.00,,,-99.99,,2013-03-25 21:52:00,
2013-03-25 17:03:00,34.0,18.0,-100.00,NNW,340,9.0,18.0,51,0.00,,,-99.99,,2013-03-25 22:03:00,
2013-03-25 17:12:00,33.0,17.0,-100.00,NNW,335,11.0,17.0,50,0.00,,,-99.99,,2013-03-25 22:12:00,
2013-03-25 17:23:00,33.0,17.0,-100.00,NNW,340,10.0,17.0,50,0.00,,,-99.99,,2013-03-25 22:23:00,
2013-03-25 17:33:00,33.0,17.0,-100.00,NNW,340,12.0,18.0,52,0.00,,,-99.99,,2013-03-25 22:33:00,
2013-03-25 17:42:00,33.0,17.0,-100.00,NNW,340,12.0,18.0,52,0.00,,,-99.99,,2013-03-25 22:42:00,
2013-03-25 17:52:00,32.0,17.0,-100.00,NNW,330,12.0,19.0,53,0.00,,,-99.99,,2013-03-25 22:52:00,
2013-03-25 18:03:00,32.0,17.0,-100.00,NNW,330,12.0,19.0,53,0.00,,,-99.99,,2013-03-25 23:03:00,
2013-03-25 18:12:00,32.0,17.0,-100.00,NNW,330,14.0,19.0,54,0.00,,,-99.99,,2013-03-25 23:12:00,
2013-03-25 18:22:00,32.0,17.0,-100.00,NNW,340,11.0,19.0,54,0.00,,,-99.99,,2013-03-25 23:22:00,
2013-03-25 18:32:00,31.0,17.0,-100.00,NNW,335,9.0,21.0,55,0.00,,,-99.99,,2013-03-25 23:32:00,
2013-03-25 18:42:00,31.0,17.0,-100.00,NNW,335,9.0,21.0,55,0.00,,,-99.99,,2013-03-25 23:42:00,
2013-03-25 18:52:00,31.0,18.0,-100.00,NW,325,12.0,20.0,57,0.00,,,-99.99,,2013-03-25 23:52:00,
2013-03-25 19:02:00,31.0,18.0,-100.00,NW,325,12.0,20.0,57,0.00,,,-99.99,,2013-03-26 00:02:00,
2013-03-25 19:12:00,31.0,18.0,-100.00,NNW,335,13.0,20.0,57,0.00,,,-99.99,,2013-03-26 00:12:00,
2013-03-25 19:22:00,31.0,18.0,-100.00,NNW,335,14.0,20.0,58,0.00,,,-99.99,,2013-03-26 00:22:00,
2013-03-25 19:32:00,30.0,18.0,-100.00,NNW,330,11.0,19.0,58,0.00,,,-99.99,,2013-03-26 00:32:00,
2013-03-25 19:42:00,30.0,18.0,-100.00,NNW,330,8.0,16.0,59,0.00,,,-99.99,,2013-03-26 00:42:00,
2013-03-25 19:52:00,30.0,17.0,-100.00,NW,325,11.0,19.0,59,0.00,,,-99.99,,2013-03-26 00:52:00,
2013-03-25 20:02:00,30.0,17.0,-100.00,NW,325,11.0,19.0,59,0.00,,,-99.99,,2013-03-26 01:02:00,
2013-03-25 20:12:00,29.0,17.0,-100.00,NNW,340,9.0,18.0,59,0.00,,,-99.99,,2013-03-26 01:12:00,
2013-03-25 20:22:00,29.0,17.0,-100.00,NNW,340,9.0,18.0,59,0.00,,,-99.99,,2013-03-26 01:22:00,
2013-03-25 20:32:00,28.0,17.0,-100.00,North,0,10.0,16.0,62,0.00,,,-99.99,,2013-03-26 01:32:00,
2013-03-25 20:42:00,28.0,17.0,-100.00,North,0,10.0,16.0,62,0.00,,,-99.99,,2013-03-26 01:42:00,
2013-03-25 20:52:00,28.0,17.0,-100.00,NNW,330,10.0,16.0,63,0.00,,,-99.99,,2013-03-26 01:52:00,
2013-03-25 21:02:00,28.0,17.0,-100.00,NNW,330,10.0,16.0,63,0.00,,,-99.99,,2013-03-26 02:02:00,
2013-03-25 21:12:00,27.0,17.0,-100.00,NW,325,12.0,19.0,63,0.00,,,-99.99,,2013-03-26 02:12:00,
2013-03-25 21:22:00,27.0,17.0,-100.00,NNW,340,6.0,16.0,64,0.00,,,-99.99,,2013-03-26 02:22:00,
2013-03-25 21:32:00,27.0,17.0,-100.00,NNW,330,10.0,16.0,66,0.00,,,-99.99,,2013-03-26 02:32:00,
2013-03-25 21:42:00,26.0,17.0,-100.00,NW,325,12.0,17.0,66,0.00,,,-99.99,,2013-03-26 02:42:00,
2013-03-25 21:52:00,26.0,17.0,-100.00,NW,325,11.0,17.0,66,0.00,,,-99.99,,2013-03-26 02:52:00,
2013-03-25 22:02:00,26.0,17.0,-100.00,NW,325,11.0,17.0,66,0.00,,,-99.99,,2013-03-26 03:02:00,
2013-03-25 22:12:00,26.0,17.0,-100.00,NNW,330,9.0,18.0,67,0.00,,,-99.99,,2013-03-26 03:12:00,
2013-03-25 22:22:00,25.0,16.0,-100.00,NNW,330,11.0,14.0,68,0.00,,,-99.99,,2013-03-26 03:22:00,
2013-03-25 22:33:00,25.0,16.0,-100.00,NNW,335,11.0,17.0,68,0.00,,,-99.99,,2013-03-26 03:33:00,
2013-03-25 22:42:00,25.0,16.0,-100.00,NNW,335,11.0,17.0,68,0.00,,,-99.99,,2013-03-26 03:42:00,
2013-03-25 22:52:00,24.0,16.0,-100.00,NNW,340,8.0,14.0,70,0.00,,,-99.99,,2013-03-26 03:52:00,
2013-03-25 23:03:00,24.0,16.0,-100.00,NNW,340,8.0,14.0,70,0.00,,,-99.99,,2013-03-26 04:03:00,
2013-03-25 23:12:00,24.0,16.0,-100.00,NW,325,8.0,16.0,71,0.00,,,-99.99,,2013-03-26 04:12:00,
2013-03-25 23:23:00,24.0,16.0,-100.00,NW,320,7.0,12.0,72,0.00,,,-99.99,,2013-03-26 04:23:00,
2013-03-25 23:32:00,24.0,16.0,-100.00,NW,320,10.0,13.0,72,0.00,,,-99.99,,2013-03-26 04:32:00,
2013-03-25 23:43:00,24.0,16.0,-100.00,NW,320,10.0,13.0,72,0.00,,,-99.99,,2013-03-26 04:43:00,
2013-03-25 23:52:00,23.0,16.0,-100.00,NNW,330,9.0,16.0,74,0.00,,,-99.99,,2013-03-26 04:52:00,